sat.trackr.live / text

‹ back to catalog

VINASAT-2

NORAD 38332 · 2012-023B

PAYLOAD ACTIVE UNKNOWN

§ Identity

Operator
Country
VTNM
Launch date
2012-05-15
Launch site
FRGUI
Launch vehicle
Mass (kg)
RCS (m²)
26.48

Purposes: comms

External: N2YO · Heavens-Above · Gunter

§ Orbital elements

Epoch: 2026-09-19T07:18:38.717856Z

Period
1,436.12 min
Inclination
0.0374°
Eccentricity
0.0002087
Mean motion
1.00270064 rev/d
Perigee alt
35,778.3 km
Apogee alt
35,795.9 km
Semi-major
42,165.2 km
B*
0.0000e+0
RAAN
318.6364°
Arg perigee
211.2343°
Mean anomaly
69.8490°
Rev number
4,760

§ Raw data

VINASAT-21 38332U 12023B   26262.30461479 -.00000333  00000+0  00000+0 0  99972 38332   0.0374 318.6364 0002087 211.2343  69.8490  1.00270064 47602

JSON: /api/v1/satellites/38332 · /tle

For live sub-satellite position, see the globe view (requires WebGL).

§ Visibility from observer

Set your observer location to see the next 7 days of passes ≥ 10°. The values pass through the URL so the page stays shareable.

No JS? Fill the form by hand. The geolocation button needs JavaScript.